Regional Weather Roundup
Issued by NWS

Current Version | Previous Version | Text Only | Print | Product List | Glossary On
Versions: 1 2 3 4 5 6 7 8 9 10 11 12 13 14 15 16 17 18 19 20 21 22 23 24 25 26
000
ASUS46 KSEW 131710
RWRWA

WASHINGTON REGIONAL WEATHER ROUNDUP
NATIONAL WEATHER SERVICE SEATTLE WA
900 AM PST WED DEC 13 2017

NOTE:"FAIR" INDICATES FEW OR NO CLOUDS BELOW 12,000 FEET WITH NO
SIGNIFICANT WEATHER AND/OR OBSTRUCTIONS TO VISIBILITY.

WAZ507-509-555>559-131800-
SEATTLE, TACOMA, EVERETT, AND VICINITY

CITY           SKY/WX    TMP DP  RH WIND       PRES   REMARKS
EVERETT        PTCLDY    39  36  89 CALM      30.44R
BOEING FIELD   CLEAR     40  34  79 NE5       30.46R
RENTON         CLEAR     33  31  92 CALM      30.45R
SEATAC AIRPORT PTCLDY    40  33  76 VRB5      30.43R
JBLM-MCCHORD   CLEAR     30  30 100 CALM      30.44R
PUYALLUP       FAIR      32  32 100 CALM      30.43R
BREMERTON      FOG       39  39 100 NE10      30.43R VSB 1/4
JBLM-FT LEWIS  CLEAR     30  30 100 SE3       30.43R
TACOMA NARROWS PTCLDY    39  36  89 NE8       30.43R
$$

WAZ001-503-506-510-514-515-131800-
NORTH INTERIOR

CITY           SKY/WX    TMP DP  RH WIND       PRES   REMARKS
BELLINGHAM     CLEAR     37  35  92 N6        30.43F
FRIDAY HARBOR  CLEAR     40  39  97 CALM      30.47R
EASTSOUND      CLEAR     43  41  93 NW5       30.46R
PORT ANGELES   CLEAR     38  36  92 SE3       30.47R
EDIZ HOOK      FAIR      47  38  73 NE5       30.48R
PORT TOWNSEND  FAIR      45  39  81 NW5       30.46R
NAS WHIDBEY    CLOUDY    38  36  92 SE5       30.49S
ARLINGTON      PTCLDY    30  29  96 CALM      30.46S
BURLINGTON     CLEAR     32  32 100 CALM      30.45S
$$

WAZ020-022-039-040-504-511-512-131800-
SOUTHWEST INTERIOR

CITY           SKY/WX    TMP DP  RH WIND       PRES   REMARKS
SHELTON        CLOUDY    34  33  96 CALM      30.43R
OLYMPIA        FOG       31  31 100 CALM      30.44R VSB 1/4
CHEHALIS       FAIR      30  30 100 CALM      30.42S
KELSO          CLEAR     32  30  92 CALM      30.43R
VANCOUVER      CLEAR     32  29  88 CALM      30.42R
SCAPPOOSE, OR  CLEAR     29  28  96 CALM      30.42R
PORTLAND, OR   PTCLDY    35  30  82 NW3       30.42R
$$

WAZ021-516-517-131800-
WASHINGTON COAST

CITY           SKY/WX    TMP DP  RH WIND       PRES   REMARKS
FORKS          FOG       34  34 100 CALM      30.40S VSB 1/4
HOQUIAM        PTCLDY    36  35  96 E6        30.39F FOG
ASTORIA, OR    FLURRIES  39  34  82 E6        30.36R
$$

WAZ019-023-024-040-567>569-131800-
CASCADE MOUNTAINS AND COLUMBIA GORGE

CITY           SKY/WX    TMP DP  RH WIND       PRES   REMARKS
STAMPEDE PASS  FOG       20  18  92 N5        30.38R VSB 3/4
TROUTDALE, OR  CLEAR     38  26  62 E17G28    30.41R
HOOD RIVER, OR CLOUDY    32  27  80 E3        30.57R
THE DALLES, OR CLOUDY    34  28  79 CALM      30.59R
$$

WAZ026-027-041>044-520-521-131800-
EAST SLOPES

CITY           SKY/WX    TMP DP  RH WIND       PRES   REMARKS
OMAK           CLOUDY    28  26  92 W3        30.53S
WENATCHEE      MOCLDY    28  24  85 NW5       30.56R
ELLENSBURG     CLOUDY    29  24  82 W5        30.53R
YAKIMA         CLOUDY    33  25  72 CALM      30.58R
SUNNYSIDE ARPT CLOUDY    29  27  91 CALM      30.58R FOG
YAKIMA TC      CLOUDY    29  24  81 CALM      30.53R
$$

WAZ028-034-035-131800-
COLUMBIA BASIN

CITY           SKY/WX    TMP DP  RH WIND       PRES   REMARKS
EPHRATA        CLOUDY    30  20  66 NW5       30.54R
MOSES LAKE     CLOUDY    30  25  81 NW3       30.55R
PASCO          CLOUDY    32  28  85 N3        30.61R
RICHLAND ARPT  CLOUDY    33  31  94 MISG      30.61R FOG
HERMISTON, OR  CLOUDY    31  29  92 CALM      30.57R FOG
$$

WAZ036>038-131800-
NORTHEAST WASHINGTON

CITY           SKY/WX    TMP DP  RH WIND       PRES   REMARKS
SPOKANE GEIGER PTSUNNY   26  23  88 CALM      30.46S
SPOKANE FELTS  CLOUDY    28  24  85 CALM      30.49S
FAIRCHILD AFB  CLOUDY    25  25  99 CALM      30.44S
COEURDALENE,ID CLOUDY    28  25  88 SW6       30.47F
DEER PARK      CLOUDY    26  23  88 CALM      30.47F
$$

WAZ029>033-131800-
SOUTHEAST WASHINGTON

CITY           SKY/WX    TMP DP  RH WIND       PRES   REMARKS
PULLMAN        CLOUDY    26  24  92 NW6       30.48R FOG
LEWISTON, ID   CLOUDY    29  27  92 CALM      30.52R
WALLA WALLA    MOSUNNY   29  25  85 N6        30.53R
PENDLETON, OR  CLOUDY    28  26  92 CALM      30.50S FOG
$$




USA.gov is the U.S. government's official web portal to all federal, state and local government web resources and services.